sat.trackr.live / text

‹ back to catalog

JILIN GAOFEN OBJECT G

NORAD 68697 · 2026-080G

PAYLOAD ACTIVE UNKNOWN

§ Identity

Operator
Country
PRC
Launch date
2026-04-14
Launch site
JSC
Launch vehicle
Mass (kg)
RCS (m²)

External: N2YO · Heavens-Above · Gunter

§ Orbital elements

Epoch: 2026-09-20T04:45:59.361408Z

Period
95.47 min
Inclination
97.6587°
Eccentricity
0.0015478
Mean motion
15.08314182 rev/d
Perigee alt
530.6 km
Apogee alt
552.1 km
Semi-major
6,919.5 km
B*
1.7665e-4
RAAN
338.7104°
Arg perigee
102.9172°
Mean anomaly
257.3785°
Rev number
2,395

§ Raw data

JILIN GAOFEN OBJECT G1 68697U 26080G   26263.19860372  .00002683  00000+0  17665-3 0  99932 68697  97.6587 338.7104 0015478 102.9172 257.3785 15.08314182 23952

JSON: /api/v1/satellites/68697 · /tle

For live sub-satellite position, see the globe view (requires WebGL).

§ Visibility from observer

Set your observer location to see the next 7 days of passes ≥ 10°. The values pass through the URL so the page stays shareable.

No JS? Fill the form by hand. The geolocation button needs JavaScript.